When you browse on this site, cookies collect data to enhance your experience and personalize the content and advertising you see.
Visit our Privacy Policy to learn more. By continuing to use the site, you agree to this use of cookies and data.
  • In Schweiz
  • Länderverzeichnis
  • Für 7 Tage
  • Wassertemperatur
  • Satellitenkarten
  • Wetterkarte
  • Widgets
  • user-avatar
    Anmelden

    Stündliche Wetter Rottenburg

    Heute, 26 Mai, Sonntag

    Zeit Temperatur Niederschläge Wind Luftdruck Luftfeuchtigkeit
    00:00 +11°C° 0 mm 1 m/S 727 mmHg 91%
    01:00 +10°C° 0 mm 1 m/S 727 mmHg 93%
    02:00 +10°C° 0 mm 1 m/S 727 mmHg 93%
    03:00 +10°C° 0 mm 1 m/S 727 mmHg 93%
    04:00 +10°C° 0 mm 1 m/S 727 mmHg 93%
    05:00 +11°C° 0 mm 1 m/S 728 mmHg 91%
    06:00 +11°C° 0 mm 0 m/S 728 mmHg 89%
    07:00 +13°C° 0 mm 0 m/S 728 mmHg 87%
    08:00 +15°C° 0 mm 0 m/S 728 mmHg 79%
    09:00 +19°C° 0 mm 1 m/S 728 mmHg 70%
    10:00 +21°C° 0 mm 1 m/S 728 mmHg 62%
    11:00 +21°C° 0 mm 1 m/S 727 mmHg 59%
    12:00 +22°C° 0 mm 1 m/S 727 mmHg 56%
    13:00 +22°C° 0 mm 1 m/S 727 mmHg 54%
    14:00 +21°C° 0 mm 2 m/S 727 mmHg 55%
    15:00 +21°C° 0 mm 2 m/S 726 mmHg 56%
    16:00 +21°C° 0 mm 2 m/S 726 mmHg 57%
    17:00 +20°C° 0 mm 2 m/S 726 mmHg 63%
    18:00 +19°C° 0 mm 2 m/S 725 mmHg 69%
    19:00 +18°C° 0 mm 2 m/S 725 mmHg 75%
    20:00 +16°C° 0 mm 1 m/S 725 mmHg 79%
    21:00 +15°C° 0 mm 1 m/S 725 mmHg 83%
    22:00 +13°C° 0 mm 1 m/S 725 mmHg 87%
    23:00 +13°C° 0 mm 1 m/S 725 mmHg 87%

    Morgen, 27 Mai, Montag

    Zeit Temperatur Niederschläge Wind Luftdruck Luftfeuchtigkeit
    00:00 +12°C° 0 mm 1 m/S 725 mmHg 87%
    01:00 +12°C° 0 mm 1 m/S 725 mmHg 87%
    02:00 +12°C° 0 mm 1 m/S 725 mmHg 87%
    03:00 +12°C° 0 mm 1 m/S 724 mmHg 87%
    04:00 +11°C° 0 mm 1 m/S 724 mmHg 87%
    05:00 +13°C° 0 mm 1 m/S 724 mmHg 84%
    06:00 +14°C° 0 mm 1 m/S 724 mmHg 80%
    07:00 +15°C° 0 mm 1 m/S 724 mmHg 76%
    08:00 +18°C° 0 mm 1 m/S 724 mmHg 71%
    09:00 +19°C° 0 mm 1 m/S 724 mmHg 66%
    10:00 +20°C° 0 mm 2 m/S 724 mmHg 62%
    11:00 +20°C° 0.2 mm 2 m/S 724 mmHg 64%
    12:00 +20°C° 0.2 mm 2 m/S 724 mmHg 66%
    13:00 +20°C° 0.2 mm 3 m/S 723 mmHg 69%
    14:00 +20°C° 0.4 mm 3 m/S 723 mmHg 73%
    15:00 +19°C° 0.4 mm 3 m/S 722 mmHg 77%
    16:00 +19°C° 0.4 mm 3 m/S 722 mmHg 81%
    17:00 +18°C° 0.4 mm 2 m/S 722 mmHg 85%
    18:00 +17°C° 0.4 mm 2 m/S 722 mmHg 89%
    19:00 +16°C° 0.4 mm 2 m/S 722 mmHg 92%
    20:00 +15°C° 0.1 mm 2 m/S 722 mmHg 94%
    21:00 +14°C° 0.1 mm 1 m/S 722 mmHg 95%
    22:00 +13°C° 0.1 mm 1 m/S 722 mmHg 96%
    23:00 +13°C° 0.1 mm 1 m/S 722 mmHg 97%

    übermorgen, 28 Mai, Dienstag

    Zeit Temperatur Niederschläge Wind Luftdruck Luftfeuchtigkeit
    00:00 +13°C° 0.1 mm 2 m/S 722 mmHg 97%
    01:00 +13°C° 0.1 mm 2 m/S 721 mmHg 97%
    02:00 +12°C° 0.1 mm 2 m/S 721 mmHg 97%
    03:00 +12°C° 0.1 mm 2 m/S 721 mmHg 97%
    04:00 +12°C° 0.1 mm 2 m/S 721 mmHg 97%
    05:00 +11°C° 0.1 mm 3 m/S 721 mmHg 96%
    06:00 +11°C° 0.1 mm 3 m/S 721 mmHg 95%
    07:00 +12°C° 0.1 mm 3 m/S 721 mmHg 94%
    08:00 +12°C° 0.1 mm 3 m/S 722 mmHg 89%
    09:00 +12°C° 0.1 mm 3 m/S 722 mmHg 83%
    10:00 +13°C° 0.1 mm 4 m/S 722 mmHg 78%
    11:00 +14°C° 0.1 mm 4 m/S 722 mmHg 73%
    12:00 +15°C° 0.1 mm 4 m/S 722 mmHg 67%
    13:00 +17°C° 0.1 mm 3 m/S 722 mmHg 62%
    14:00 +15°C° 0.4 mm 4 m/S 722 mmHg 67%
    15:00 +15°C° 0.4 mm 4 m/S 722 mmHg 72%
    16:00 +14°C° 0.4 mm 4 m/S 722 mmHg 78%
    17:00 +13°C° 0.3 mm 3 m/S 722 mmHg 81%
    18:00 +13°C° 0.3 mm 3 m/S 722 mmHg 85%
    19:00 +12°C° 0.3 mm 3 m/S 723 mmHg 88%
    20:00 +11°C° 0 mm 3 m/S 723 mmHg 90%
    21:00 +9°C° 0 mm 3 m/S 724 mmHg 92%
    22:00 +8°C° 0 mm 3 m/S 724 mmHg 93%
    23:00 +8°C° 0 mm 3 m/S 724 mmHg 94%

    29 Mai, Mittwoch

    Zeit Temperatur Niederschläge Wind Luftdruck Luftfeuchtigkeit
    00:00 +8°C° 0 mm 3 m/S 724 mmHg 94%
    01:00 +8°C° 0 mm 3 m/S 725 mmHg 95%
    02:00 +8°C° 0 mm 2 m/S 725 mmHg 95%
    03:00 +8°C° 0 mm 2 m/S 725 mmHg 96%
    04:00 +8°C° 0 mm 2 m/S 726 mmHg 96%
    05:00 +8°C° 0 mm 2 m/S 726 mmHg 94%
    06:00 +9°C° 0 mm 3 m/S 726 mmHg 91%
    07:00 +10°C° 0 mm 3 m/S 727 mmHg 89%
    08:00 +11°C° 0 mm 3 m/S 727 mmHg 86%
    09:00 +11°C° 0 mm 3 m/S 727 mmHg 83%
    10:00 +12°C° 0 mm 3 m/S 728 mmHg 80%
    11:00 +12°C° 0.1 mm 3 m/S 728 mmHg 78%
    12:00 +13°C° 0.1 mm 3 m/S 728 mmHg 77%
    13:00 +13°C° 0.1 mm 4 m/S 728 mmHg 76%
    14:00 +14°C° 0.1 mm 4 m/S 729 mmHg 73%
    15:00 +15°C° 0.1 mm 4 m/S 729 mmHg 71%
    16:00 +15°C° 0.1 mm 4 m/S 729 mmHg 68%
    17:00 +16°C° 0.2 mm 3 m/S 729 mmHg 74%
    18:00 +15°C° 0.2 mm 2 m/S 730 mmHg 80%
    19:00 +14°C° 0.2 mm 2 m/S 730 mmHg 86%
    20:00 +12°C° 0 mm 1 m/S 730 mmHg 88%
    21:00 +11°C° 0 mm 1 m/S 731 mmHg 90%
    22:00 +9°C° 0 mm 1 m/S 731 mmHg 93%
    23:00 +9°C° 0 mm 1 m/S 732 mmHg 93%

    30 Mai, Donnerstag

    Zeit Temperatur Niederschläge Wind Luftdruck Luftfeuchtigkeit
    00:00 +9°C° 0 mm 1 m/S 732 mmHg 93%
    01:00 +8°C° 0 mm 1 m/S 732 mmHg 94%
    02:00 +8°C° 0 mm 1 m/S 732 mmHg 94%
    03:00 +8°C° 0 mm 1 m/S 732 mmHg 94%
    04:00 +8°C° 0 mm 1 m/S 732 mmHg 94%
    05:00 +9°C° 0 mm 1 m/S 733 mmHg 92%
    06:00 +11°C° 0 mm 1 m/S 733 mmHg 89%
    07:00 +12°C° 0 mm 1 m/S 733 mmHg 87%
    08:00 +14°C° 0 mm 1 m/S 733 mmHg 76%
    09:00 +16°C° 0 mm 1 m/S 733 mmHg 65%
    10:00 +18°C° 0 mm 2 m/S 733 mmHg 55%
    11:00 +18°C° 0 mm 2 m/S 733 mmHg 53%
    12:00 +19°C° 0 mm 2 m/S 733 mmHg 50%
    13:00 +20°C° 0 mm 3 m/S 733 mmHg 48%
    14:00 +20°C° 0 mm 3 m/S 733 mmHg 51%
    15:00 +20°C° 0 mm 3 m/S 732 mmHg 53%
    16:00 +20°C° 0 mm 3 m/S 732 mmHg 55%
    17:00 +19°C° 0.1 mm 3 m/S 732 mmHg 64%
    18:00 +18°C° 0.1 mm 3 m/S 732 mmHg 72%
    19:00 +17°C° 0.1 mm 2 m/S 732 mmHg 80%
    20:00 +15°C° 0 mm 2 m/S 732 mmHg 84%
    21:00 +14°C° 0 mm 2 m/S 732 mmHg 88%
    22:00 +13°C° 0 mm 2 m/S 732 mmHg 92%
    23:00 +13°C° 0.4 mm 2 m/S 732 mmHg 92%

    31 Mai, Freitag

    Zeit Temperatur Niederschläge Wind Luftdruck Luftfeuchtigkeit
    00:00 +13°C° 0.4 mm 2 m/S 732 mmHg 93%
    01:00 +13°C° 0.4 mm 2 m/S 732 mmHg 94%
    02:00 +12°C° 1.1 mm 3 m/S 732 mmHg 94%
    03:00 +13°C° 1.1 mm 3 m/S 732 mmHg 95%
    04:00 +13°C° 1.1 mm 3 m/S 731 mmHg 95%
    05:00 +13°C° 1 mm 3 m/S 731 mmHg 95%
    06:00 +13°C° 1 mm 3 m/S 732 mmHg 96%
    07:00 +14°C° 1 mm 3 m/S 732 mmHg 96%
    08:00 +14°C° 0.2 mm 3 m/S 732 mmHg 95%
    09:00 +14°C° 0.2 mm 3 m/S 732 mmHg 94%
    10:00 +16°C° 0.2 mm 3 m/S 733 mmHg 93%
    11:00 +16°C° 0.5 mm 3 m/S 733 mmHg 91%
    12:00 +17°C° 0.5 mm 4 m/S 733 mmHg 89%
    13:00 +18°C° 0.5 mm 4 m/S 733 mmHg 87%
    14:00 +18°C° 0.8 mm 4 m/S 734 mmHg 89%
    15:00 +17°C° 0.8 mm 3 m/S 734 mmHg 90%
    16:00 +17°C° 0.8 mm 3 m/S 734 mmHg 91%
    17:00 +16°C° 0.5 mm 3 m/S 734 mmHg 91%
    18:00 +16°C° 0.5 mm 3 m/S 734 mmHg 92%
    19:00 +15°C° 0.5 mm 2 m/S 735 mmHg 92%
    20:00 +14°C° 0 mm 2 m/S 735 mmHg 93%
    21:00 +13°C° 0 mm 2 m/S 736 mmHg 94%
    22:00 +11°C° 0 mm 1 m/S 736 mmHg 95%
    23:00 +10°C° 0 mm 2 m/S 736 mmHg 95%
    Mehr zeigen